TONGUE Weather Reports


Display with metric or nautical units.
time (UTC)temp
F
wind
direction
speed
MPH
gust
MPH
rain 1hr
in
rain 24hr
in
rain mn
in
humidity
%
barometer
mb
20260504231003 61 237 3.0 12.0 0.00 0.00 0.00 75
20260504230003 62 152 1.0 8.0 0.00 0.00 0.00 76
20260504225003 61 210 2.0 14.0 0.00 0.00 0.00 81
20260504223002 61 175 4.0 15.0 0.00 0.00 0.00 79
20260504222003 61 182 1.0 12.0 0.00 0.00 0.00 75
20260504221003 62 251 3.0 8.0 0.00 0.00 0.00 75
20260504220003 62 186 1.0 11.0 0.00 0.00 0.00 73
20260504215003 63 239 3.0 11.0 0.00 0.00 0.00 72
20260504214003 61 276 4.0 13.0 0.00 0.00 0.00 75
20260504213004 61 233 5.0 13.0 0.00 0.00 0.00 76
20260504212003 62 264 4.0 13.0 0.00 0.00 0.00 75
20260504211002 62 229 1.0 10.0 0.00 0.00 0.00 76
20260504210004 63 206 2.0 8.0 0.00 0.00 0.00 72
20260504205003 63 270 4.0 13.0 0.00 0.00 0.00 73
20260504204003 62 255 4.0 12.0 0.00 0.00 0.00 72
20260504203003 63 210 2.0 11.0 0.00 0.00 0.00 73
20260504202002 63 290 5.0 13.0 0.00 0.00 0.00 72
20260504201003 63 240 1.0 10.0 0.00 0.00 0.00 71
20260504200003 63 212 2.0 10.0 0.00 0.00 0.00 71
20260504195003 63 272 4.0 11.0 0.00 0.00 0.00 72
20260504194003 65 217 2.0 6.0 0.00 0.00 0.00 70
20260504193003 65 237 1.0 8.0 0.00 0.00 0.00 73
20260504192003 63 236 1.0 7.0 0.00 0.00 0.00 73
20260504191003 63 120 1.0 5.0 0.00 0.00 0.00 74
20260504190003 62 81 1.0 7.0 0.00 0.00 0.00 79
20260504185002 63 116 0.0 4.0 0.00 0.00 0.00 79
20260504184003 61 253 3.0 7.0 0.00 0.00 0.00 79
20260504183003 61 207 1.0 5.0 0.00 0.00 0.00 81
20260504182003 61 75 1.0 5.0 0.00 0.00 0.00 81
20260504181003 61 221 2.0 5.0 0.00 0.00 0.00 81
20260504180003 60 63 1.0 4.0 0.00 0.00 0.00 80
20260504175003 60 103 2.0 5.0 0.00 0.00 0.00 80
20260504174002 61 152 0.0 7.0 0.00 0.00 0.00 80
20260504173003 59 108 3.0 7.0 0.00 0.00 0.00 86
20260504172003 60 160 1.0 4.0 0.00 0.00 0.00 78
20260504171003 60 159 0.0 5.0 0.00 0.00 0.00 80
20260504151003 56 199 0.0 7.0 0.00 0.00 0.00 92
20260504141008 53 189 0.0 1.0 0.00 0.00 0.00
20260504082008 54 303 1.0 5.0 0.00 0.00 0.00 96
20260504081002 54 264 1.0 4.0 0.00 0.00 0.00 95
20260504050004 60 176 3.0 4.0 0.00 0.00 0.00 83
20260504045003 62 183 2.0 3.0 0.00 0.00 0.00 83
20260504044003 62 178 2.0 4.0 0.00 0.00 0.00 83
20260504043004 62 173 0.0 2.0 0.00 0.00 0.00 82
20260504042002 63 193 1.0 2.0 0.00 0.00 0.00 79
20260504041002 63 135 1.0 3.0 0.00 0.00 0.00 79
20260504040003 65 179 2.0 3.0 0.00 0.00 0.00 76
20260504035003 66 180 2.0 3.0 0.00 0.00 0.00 76
20260504034003 68 199 0.0 3.0 0.00 0.00 0.00 68
20260504033008 70 154 1.0 7.0 0.00 0.00 0.00 63
20260504032003 76 246 2.0 14.0 0.00 0.00 0.00 37
20260504031002 75 278 2.0 12.0 0.00 0.00 0.00 41
20260504030003 75 278 3.0 9.0 0.00 0.00 0.00 39
20260504025003 75 278 4.0 10.0 0.00 0.00 0.00 40
20260504024003 76 277 3.0 11.0 0.00 0.00 0.00 41
20260504023003 77 287 4.0 8.0 0.00 0.00 0.00 40
20260504022003 77 282 4.0 8.0 0.00 0.00 0.00 44
20260504021002 77 278 4.0 8.0 0.00 0.00 0.00 42
20260504020003 78 274 3.0 10.0 0.00 0.00 0.00 41
20260504015003 79 283 3.0 10.0 0.00 0.00 0.00 42
20260504014003 80 275 4.0 9.0 0.00 0.00 0.00 39
20260504013003 80 273 4.0 8.0 0.00 0.00 0.00 39
20260504012007 81 272 3.0 8.0 0.00 0.00 0.00 37
20260504011002 81 271 3.0 8.0 0.00 0.00 0.00 39
20260504010003 82 276 4.0 8.0 0.00 0.00 0.00 35
20260504005003 82 288 4.0 9.0 0.00 0.00 0.00 34
20260504004003 82 271 4.0 10.0 0.00 0.00 0.00 35
20260504003003 82 283 5.0 10.0 0.00 0.00 0.00 34
20260504002003 82 271 4.0 9.0 0.00 0.00 0.00 33
20260504001002 83 288 6.0 12.0 0.00 0.00 0.00 31
20260504000003 85 268 2.0 7.0 0.00 0.00 0.00 31
20260503235003 85 288 3.0 7.0 0.00 0.00 0.00 30
20260503234003 84 289 5.0 10.0 0.00 0.00 0.00 32
20260503233003 85 286 5.0 10.0 0.00 0.00 0.00 33
20260503232002 85 285 4.0 10.0 0.00 0.00 0.00 30